リニア彗星

C/1999 G1 ( LINEAR )

English version
Home page
Updated on May 27, 2001

---------------------------------------------------------------------

・ プロフィール

発見日 1999年 4月 7日
発見光度 18.9等
発見者 Lincoln Laboratory Near-Earth Asteroid Research project

・ 写真集

・ 軌道要素

    Orbital elements by K. Muraoka,
    from 42 observations    1999 Apr. 8 to May 13,
    m.e. =  +/- 0.92 arc seconds.

          T  =  1998 July 31.9308  TT
       Peri. =  136.0145   
       Node  =   23.4840   (2000.0)
       Incl. =   76.3145   
          q  =    4.040547  AU
          e  =    0.845170 
          a  =   26.096670  AU
          n  =    0.0073931
          P  =  133.32     years

・ 星図

・ 光度変化

        m1 = 8.0 + 5 logΔ + 10.0 log r

---------------------------------------------------------------------

軌道要素は村岡健治氏の計算によるものです。
星図は StellaNavigator Ver.2.0 for Windows (アストロアーツ 編著 / アスキー出版局刊) で作成したものです。
光度グラフはComet for Windowsで作成したものです。

---------------------------------------------------------------------

Copyright(C) Seiichi Yoshida (comet@aerith.net). All rights reserved.